Torna al catalogo

STARLINK-6224

AttivoComunicazioniVLEO
NORAD 56425·PAYLOAD·🇺🇸 United States

Lanciato May 4, 2023 da Cape Canaveral Space Force Station

Loading…

Prossimi Passaggi (prossime 24 ore)

TLE

AggiornatoSource: CelesTrak SupGP

Epoca: Sep 15, 2026, 02:36 UTC

1 56425C 23061BD  26258.10881944 -.00019485  00000+0 -70585-3 0  2586
2 56425  43.0007 189.9499 0001509 271.2294 221.3108 15.27583561    10

Traccia STARLINK-6224 in tempo reale con AllMySat

Download on the App Store